Tracking 33404 objects as of 6-Mar-2026
HD Live streaming from Space Station
objects crossing your sky now

STARLINK-35299

Track STARLINK-35299 now!
10-day predictions
STARLINK-35299 is classified as:


NORAD ID: 66072
Int'l Code: 2025-235Q
Perigee: 481.5 km
Apogee: 483.3 km
Inclination: 53.2 °
Period: 94.1 minutes
Semi major axis: 6853 km
RCS: Unknown
Launch date: October 19, 2025
Source: United States (US)
Launch site: AIR FORCE EASTERN TEST RANGE (AFETR)
Your satellite tracking list
Your tracking list is empty




NASA's NSSDC Master Catalog

Two Line Element Set (TLE):
1 66072U 25235Q   26065.25489042  .00059146  00000-0  19938-2 0  9998
2 66072  53.1571 261.3635 0001289  90.4118 269.7031 15.30190454 22390
Source of the keplerian elements: AFSPC